TimeCST,TemperatureF,Dew PointF,Humidity,Sea Level PressureIn,VisibilityMPH,Wind Direction,Wind SpeedMPH,Gust SpeedMPH,PrecipitationIn,Events,Conditions,WindDirDegrees,DateUTC
12:53 AM,69.1,64.9,87,29.98,10.0,South,12.7,-,N/A,,Overcast,180,2013-01-30 06:53:00
1:12 AM,69.8,66.2,88,29.98,10.0,South,13.8,-,N/A,,Overcast,170,2013-01-30 07:12:00
1:53 AM,70.0,66.0,87,29.95,10.0,South,13.8,21.9,N/A,,Overcast,170,2013-01-30 07:53:00
2:53 AM,70.0,66.0,87,29.94,10.0,South,11.5,-,N/A,,Overcast,190,2013-01-30 08:53:00
3:53 AM,70.0,66.9,90,29.91,10.0,South,11.5,20.7,0.00,,Overcast,180,2013-01-30 09:53:00
4:19 AM,71.6,66.2,83,29.92,10.0,South,17.3,-,N/A,,Overcast,180,2013-01-30 10:19:00
4:53 AM,71.1,66.9,87,29.89,10.0,South,16.1,25.3,0.00,Rain,Light Rain,190,2013-01-30 10:53:00
5:53 AM,70.0,66.9,90,29.87,10.0,South,15.0,-,0.00,,Overcast,170,2013-01-30 11:53:00
6:14 AM,69.8,66.2,88,29.87,10.0,SSE,12.7,-,N/A,,Overcast,160,2013-01-30 12:14:00
6:34 AM,69.8,66.2,88,29.87,10.0,South,19.6,25.3,N/A,,Overcast,170,2013-01-30 12:34:00
6:53 AM,70.0,66.0,87,29.88,10.0,South,13.8,24.2,N/A,,Overcast,170,2013-01-30 12:53:00
7:53 AM,70.0,66.0,87,29.85,10.0,South,16.1,-,0.00,,Overcast,170,2013-01-30 13:53:00
8:53 AM,71.1,66.9,87,29.84,10.0,South,16.1,23.0,N/A,,Overcast,170,2013-01-30 14:53:00
9:53 AM,73.0,66.9,81,29.83,10.0,South,20.7,-,0.00,Rain,Light Rain,180,2013-01-30 15:53:00
10:53 AM,73.9,69.1,85,29.81,10.0,South,20.7,31.1,0.00,Rain,Light Rain,190,2013-01-30 16:53:00
11:26 AM,75.2,68.0,78,29.80,10.0,South,19.6,29.9,0.00,,Overcast,190,2013-01-30 17:26:00
11:34 AM,75.2,68.0,78,29.79,10.0,South,24.2,36.8,0.00,,Overcast,190,2013-01-30 17:34:00
11:53 AM,75.9,68.0,76,29.75,10.0,South,23.0,35.7,0.00,,Overcast,190,2013-01-30 17:53:00
12:16 PM,73.4,69.8,88,29.76,10.0,SSW,28.8,34.5,0.00,Rain,Light Rain,200,2013-01-30 18:16:00
12:53 PM,75.0,68.0,79,29.71,10.0,SSW,27.6,44.9,0.00,Rain,Light Rain,200,2013-01-30 18:53:00
1:14 PM,75.2,69.8,83,29.71,10.0,South,31.1,39.1,0.00,,Mostly Cloudy,190,2013-01-30 19:14:00
1:53 PM,73.9,68.0,82,29.66,10.0,South,33.4,44.9,0.00,Rain,Light Rain,190,2013-01-30 19:53:00
2:12 PM,73.4,68.0,83,29.67,10.0,South,29.9,42.6,0.00,Rain,Light Rain,190,2013-01-30 20:12:00
2:36 PM,73.4,68.0,83,29.69,1.8,SSW,26.5,43.7,0.00,Rain,Rain,210,2013-01-30 20:36:00
2:45 PM,71.6,69.8,94,29.68,0.8,SW,23.0,35.7,N/A,Rain,Heavy Rain,230,2013-01-30 20:45:00
2:48 PM,69.8,68.0,94,29.66,1.0,SW,17.3,35.7,N/A,Rain,Heavy Rain,230,2013-01-30 20:48:00
2:53 PM,71.1,68.0,90,29.66,2.0,SW,24.2,35.7,N/A,Rain,Rain,230,2013-01-30 20:53:00
3:13 PM,71.6,68.0,88,29.66,7.0,SW,18.4,31.1,N/A,Rain,Light Rain,230,2013-01-30 21:13:00
3:42 PM,66.2,64.4,94,29.70,1.5,West,27.6,43.7,N/A,Rain,Heavy Rain,280,2013-01-30 21:42:00
3:45 PM,64.4,62.6,94,29.71,0.8,NW,25.3,43.7,N/A,Rain-Thunderstorm,Heavy Thunderstorms and Rain,310,2013-01-30 21:45:00
3:53 PM,57.9,57.0,97,29.71,0.8,WNW,31.1,41.4,N/A,Rain-Thunderstorm,Heavy Thunderstorms and Rain,300,2013-01-30 21:53:00
4:00 PM,55.4,53.6,94,29.75,0.8,WNW,25.3,41.4,N/A,Rain,Heavy Rain,300,2013-01-30 22:00:00
4:03 PM,55.4,53.6,94,29.76,1.0,WNW,27.6,40.3,N/A,Rain,Heavy Rain,290,2013-01-30 22:03:00
4:07 PM,53.6,53.6,100,29.76,3.0,WNW,24.2,36.8,N/A,Rain,Light Rain,290,2013-01-30 22:07:00
4:17 PM,53.6,51.8,94,29.79,10.0,West,31.1,40.3,N/A,,Overcast,280,2013-01-30 22:17:00
4:31 PM,53.6,50.0,88,29.79,10.0,WNW,21.9,35.7,N/A,Rain,Light Rain,290,2013-01-30 22:31:00
4:53 PM,53.1,48.9,86,29.78,10.0,West,13.8,21.9,N/A,,Overcast,280,2013-01-30 22:53:00
5:53 PM,53.1,46.9,80,29.82,10.0,West,12.7,-,N/A,,Overcast,270,2013-01-30 23:53:00
6:53 PM,52.0,44.1,74,29.85,10.0,West,16.1,21.9,N/A,,Overcast,270,2013-01-31 00:53:00
7:53 PM,51.1,46.0,83,29.88,10.0,West,13.8,-,N/A,,Overcast,260,2013-01-31 01:53:00
8:53 PM,51.1,48.0,89,29.91,10.0,West,11.5,21.9,N/A,,Overcast,260,2013-01-31 02:53:00
9:53 PM,50.0,42.1,74,29.95,10.0,WNW,23.0,36.8,N/A,,Mostly Cloudy,290,2013-01-31 03:53:00
10:53 PM,48.0,39.0,71,30.01,10.0,WNW,18.4,26.5,N/A,,Scattered Clouds,300,2013-01-31 04:53:00
11:53 PM,46.0,35.1,66,30.04,10.0,WNW,16.1,26.5,N/A,,Clear,290,2013-01-31 05:53:00